Location: ???????
(38.3360°N, 23.6977°E)
Time: 05:03:20
(UTC+00:00)

Cosmos 1869 - Pass Details

Date: 17 November 2025
Orbit: 453 x 481 km, 82.5° (Epoch: 09 December)

Event Time Altitude Azimuth Distance (km) Brightness Sun altitude
Rises 15:34:02 0° 171° (S) 2,492 6.8 -5.0°
Reaches altitude 10° 15:36:11 10° 163° (SSE) 1,615 5.8 -5.4°
Maximum altitude 15:39:30 40° 93° (E) 702 3.4 -6.0°
Drops below altitude 10° 15:42:49 10° 23° (NNE) 1,612 5.3 -6.6°
Sets 15:44:57 0° 16° (NNE) 2,486 6.3 -7.0°
